Regional Weather Roundup
Issued by NWS

Home | Current Version | Previous Version | Text Only | Print | Product List | Glossary Off
Versions: 1 2 3 4 5 6 7 8 9 10 11 12 13 14 15 16 17 18 19 20 21 22 23 24 25 26 27 28 29 30 31 32 33 34 35 36 37 38 39 40 41 42 43 44 45 46 47 48 49 50

000
ASUS43 KFSD 280202
RWRSD

WEATHER ROUNDUP FOR SOUTH DAKOTA
NATIONAL WEATHER SERVICE SIOUX FALLS SD
900 PM CDT WED MAY 27 2015

NOTE: "FAIR" INDICATES FEW OR NO CLOUDS BELOW 12,000 FEET WITH NO
SIGNIFICANT WEATHER AND/OR OBSTRUCTIONS TO VISIBILITY.


SDZ001>005-009-010-012>017-280300-
NORTHWEST AND NORTH CENTRAL SOUTH DAKOTA

CITY           SKY/WX    TMP DP  RH WIND       PRES   REMARKS
BUFFALO          N/A     59  55  87 E9        29.87S
FAITH            N/A     62  55  77 SE13      29.90F
MOBRIDGE       LGT RAIN  67  58  72 VRB5      29.91S
$$

SDZ012>016-024>037-041>051-057-063-072>074-280300-
SOUTHWEST AND SOUTH CENTRAL SOUTH DAKOTA

CITY           SKY/WX    TMP DP  RH WIND       PRES   REMARKS
RAPID CTY ARPT MOCLDY    66  54  65 S6        29.90S
PIERRE         CLOUDY    72  51  47 SE10      29.91R
CUSTER         CLEAR     61  44  53 SW5       30.02S
ELLSWORTH AFB  HAZE      66  59  77 SE8       29.90S VSB 1
PHILIP         CLOUDY    62  59  90 E8        29.90F
PINE RIDGE     MOCLDY    67  51  56 S7        29.95R
WINNER         FAIR      74  51  44 S14       29.95S
$$

SDZ004>011-016>023-039-040-280300-
NORTHEAST SOUTH DAKOTA

CITY           SKY/WX    TMP DP  RH WIND       PRES   REMARKS
ABERDEEN       CLOUDY    70  56  61 S7        29.95R
WATERTOWN      PTCLDY    70  53  54 SW6       29.99R
BROOKINGS      PTCLDY    73  50  43 S5        30.01R
$$

SDZ017-020-022-023-036>040-048>070-280300-
SOUTHEAST SOUTH DAKOTA

CITY           SKY/WX    TMP DP  RH WIND       PRES   REMARKS
SIOUX FALLS    PTCLDY    71  50  47 S7        30.00R
HURON            N/A    N/A N/A N/A MISG      29.96R
CHAMBERLAIN    CLOUDY    67  53  61 SE6       29.95S
MITCHELL       CLOUDY    74  55  51 S7        29.97S
YANKTON        MOCLDY    75  46  35 S7        29.98R
$$

ABBREVIATIONS USED IN REMARKS
   TC - TEMPERATURE IN CELSIUS
  WCI - WIND CHILL INDEX
   HX - HEAT INDEX
  VSB - VISIBILITY




USA.gov is the U.S. government's official web portal to all federal, state and local government web resources and services.